Вернуться в каталог

TIANHUI 5B

АктивенНаукаSSO
NORAD 58201·PAYLOAD·🇨🇳 China

Запущен Oct 31, 2023 с Taiyuan Satellite Launch Center

Loading…

Ближайшие Пролёты (ближайшие 24 часа)

TLE

СвежийSource: Space-Track

Эпоха: Sep 14, 2026, 08:04 UTC

1 58201U 23168C   26257.33670883  .00000269  00000-0  35603-4 0  9994
2 58201  97.8213 263.4538 0002143  95.1791 264.9669 14.87584559155853

Отслеживайте TIANHUI 5B в реальном времени с AllMySat

Download on the App Store